This demonstration page uses our WeatherBlox Daily Observations layout. Learn more.

Left ArrowRight Arrow

39.92423, -83.80882

Hourly Observations for August 5, 2021

Temp ( °F °C ) Dew Point ( °F °C ) Humidity (%) Winds ( mph kmh ) Pressure ( in mb ) Visibility ( mi km ) Precip ( " mm )
12:56 am 00:56 Cloudy 65 18.3 59 15 81 81 NNE 3 6 30.13 1020 10 16 N/A
1:56 am 01:56 Clear 64 17.8 57 13.9 78 78 NE 6 9 30.11 1020 10 16 N/A
2:56 am 02:56 Clear 61 16.1 60 15.6 97 97 N N/A 30.11 1020 10 16 N/A
3:56 am 03:56 Mostly Cloudy 60 15.6 59 15 96 96 ENE 3 6 30.11 1020 10 16 N/A
4:56 am 04:56 Mostly Cloudy 61 16.1 60 15.6 97 97 ENE 3 6 30.11 1020 10 16 N/A
5:56 am 05:56 Cloudy 62 16.7 61 16.1 96 96 N N/A 30.12 1020 10 16 N/A
6:56 am 06:56 Cloudy 63 17.2 60 15.6 90 90 N N/A 30.14 1021 10 16 N/A
7:56 am 07:56 Mostly Cloudy 65 18.3 64 17.8 97 97 N 3 6 30.15 1021 10 16 N/A
8:56 am 08:56 Partly Cloudy 69 20.6 63 17.2 81 81 E 3 6 30.16 1021 10 16 N/A
9:56 am 09:56 Mostly Cloudy 71 21.7 63 17.2 76 76 E 3 6 30.17 1022 10 16 N/A
10:56 am 10:56 Mostly Sunny 75 23.9 63 17.2 66 66 ENE 6 9 30.16 1021 10 16 N/A
11:56 am 11:56 Sunny 78 25.6 60 15.6 54 54 undefined N/A 30.16 1021 10 16 N/A
12:56 pm 12:56 Sunny 80 26.7 61 16.1 52 52 E 5 7 30.15 1021 10 16 N/A
1:56 pm 13:56 Sunny 80 26.7 61 16.1 52 52 N N/A 30.13 1020 10 16 N/A
2:56 pm 14:56 Mostly Sunny 81 27.2 63 17.2 54 54 VRB 5 7 30.12 1020 9 14 N/A
3:56 pm 15:56 Mostly Sunny 80 26.7 64 17.8 58 58 SSE 3 6 30.10 1019 10 16 N/A
4:56 pm 16:56 Mostly Sunny 81 27.2 63 17.2 54 54 E 6 9 30.09 1019 9 14 N/A
5:56 pm 17:56 Sunny 81 27.2 65 18.3 58 58 ESE 7 11 30.09 1019 10 16 N/A
6:56 pm 18:56 Sunny 80 26.7 65 18.3 60 60 SE 6 9 30.08 1019 10 16 N/A
7:56 pm 19:56 Sunny 76 24.4 69 20.6 79 79 SE 3 6 30.08 1019 10 16 N/A
8:56 pm 20:56 Mostly Cloudy 73 22.8 70 21.1 90 90 E 5 7 30.09 1019 10 16 N/A
9:56 pm 21:56 Clear 69 20.6 69 20.6 100 100 SE 6 9 30.10 1019 10 16 N/A
10:56 pm 22:56 Clear 69 20.6 68 20 96 96 SE 6 9 30.10 1019 10 16 N/A
11:56 pm 23:56 Mostly Cloudy 67 19.4 67 19.4 100 100 SE 5 7 30.10 1019 9 14 N/A

Powered by AerisWeather